NOO2531 SKBO-SKSM

Flight info

Callsign NOO2531
Flight time N/A
Altitude 36000
Route OSUSU4R GIKPU UQ120 DIBAM/N0458F380 UW9 ELB/N0462F370 UW9 EDVAR EDVAR1D
Aircraft A320/M-SDE3FGHIRWY/LB1

Departure

Time N/A
Airport El Dorado International Airport (SKBO)

Arrival

Time 2026-05-04 03:42
Airport Simón Bolívar International Airport (SKSM)
Time Latitude Longitude Altitude Speed Heading
2026-05-04 03:24 9.80939 -74.00085 22408 ft 413 kts 358°
2026-05-04 03:24 9.83776 -74.00209 21851 ft 411 kts 358°
2026-05-04 03:25 9.86627 -74.00334 21288 ft 409 kts 358°
2026-05-04 03:25 9.89451 -74.00458 20724 ft 407 kts 358°
2026-05-04 03:25 9.92271 -74.00581 20158 ft 406 kts 358°
2026-05-04 03:25 9.95064 -74.00703 19592 ft 405 kts 358°
2026-05-04 03:26 9.97889 -74.00826 19015 ft 404 kts 358°
2026-05-04 03:26 10.00682 -74.00948 18441 ft 403 kts 359°
2026-05-04 03:26 10.03448 -74.01070 17869 ft 401 kts 359°
2026-05-04 03:26 10.06226 -74.01191 17297 ft 400 kts 358°
2026-05-04 03:27 10.08983 -74.01432 16761 ft 398 kts 353°
2026-05-04 03:27 10.11667 -74.01912 16250 ft 395 kts 348°
2026-05-04 03:27 10.14330 -74.02606 15747 ft 392 kts 346°
2026-05-04 03:27 10.16944 -74.03348 15255 ft 388 kts 345°
2026-05-04 03:28 10.19524 -74.04088 14758 ft 385 kts 345°
2026-05-04 03:28 10.22080 -74.04819 14267 ft 381 kts 345°
2026-05-04 03:28 10.24586 -74.05531 13776 ft 378 kts 345°
2026-05-04 03:28 10.27113 -74.06248 13284 ft 375 kts 345°
2026-05-04 03:29 10.29607 -74.06954 12792 ft 372 kts 345°
2026-05-04 03:29 10.32078 -74.07653 12302 ft 369 kts 345°
2026-05-04 03:29 10.34534 -74.08347 11811 ft 367 kts 345°
2026-05-04 03:29 10.36984 -74.09039 11303 ft 365 kts 346°
2026-05-04 03:30 10.39396 -74.09721 10817 ft 362 kts 346°
2026-05-04 03:30 10.41797 -74.10398 10465 ft 355 kts 346°
2026-05-04 03:30 10.44137 -74.11059 10264 ft 343 kts 346°
2026-05-04 03:30 10.46406 -74.11700 10153 ft 330 kts 346°
2026-05-04 03:31 10.48551 -74.12306 10027 ft 319 kts 347°
2026-05-04 03:31 10.50659 -74.12902 9886 ft 309 kts 347°
2026-05-04 03:31 10.52699 -74.13478 9598 ft 305 kts 347°
2026-05-04 03:31 10.54742 -74.14055 9311 ft 301 kts 347°
2026-05-04 03:32 10.56748 -74.14619 8996 ft 298 kts 347°
2026-05-04 03:32 10.58730 -74.15177 8689 ft 296 kts 347°
2026-05-04 03:32 10.60683 -74.15731 8281 ft 288 kts 347°
2026-05-04 03:32 10.62586 -74.16268 7623 ft 285 kts 347°
2026-05-04 03:33 10.64483 -74.16805 7247 ft 279 kts 347°
2026-05-04 03:33 10.66349 -74.17333 6920 ft 280 kts 347°
2026-05-04 03:33 10.68229 -74.17860 6574 ft 281 kts 346°
2026-05-04 03:33 10.70108 -74.18387 6183 ft 285 kts 346°
2026-05-04 03:34 10.72041 -74.18938 5805 ft 287 kts 347°
2026-05-04 03:34 10.73933 -74.19476 5507 ft 285 kts 347°
2026-05-04 03:34 10.75859 -74.20016 5136 ft 287 kts 347°
2026-05-04 03:34 10.77743 -74.20554 4848 ft 284 kts 347°
2026-05-04 03:35 10.79618 -74.21085 4573 ft 270 kts 347°
2026-05-04 03:35 10.81368 -74.21583 4493 ft 255 kts 347°
2026-05-04 03:35 10.83041 -74.22057 4474 ft 242 kts 347°
2026-05-04 03:35 10.84630 -74.22425 4476 ft 228 kts 355°
2026-05-04 03:36 10.86198 -74.22548 4284 ft 225 kts
2026-05-04 03:36 10.87741 -74.22575 4023 ft 223 kts
2026-05-04 03:36 10.89251 -74.22593 3801 ft 211 kts
2026-05-04 03:36 10.90685 -74.22619 3630 ft 202 kts
2026-05-04 03:37 10.92053 -74.22643 3457 ft 195 kts
2026-05-04 03:37 10.93406 -74.22670 3213 ft 191 kts
2026-05-04 03:37 10.94716 -74.22694 3027 ft 184 kts
2026-05-04 03:37 10.95963 -74.22727 2885 ft 176 kts
2026-05-04 03:38 10.97158 -74.22752 2748 ft 167 kts
2026-05-04 03:38 10.98289 -74.22777 2554 ft 162 kts
2026-05-04 03:38 10.99388 -74.22799 2308 ft 156 kts
2026-05-04 03:38 11.00432 -74.22826 2105 ft 144 kts
2026-05-04 03:39 11.01407 -74.22845 1910 ft 139 kts
2026-05-04 03:39 11.02396 -74.22862 1749 ft 142 kts
2026-05-04 03:39 11.03361 -74.22884 1550 ft 138 kts
2026-05-04 03:39 11.04318 -74.22896 1375 ft 136 kts 359°
2026-05-04 03:40 11.05268 -74.22916 1186 ft 135 kts 359°
2026-05-04 03:40 11.06202 -74.22939 1014 ft 135 kts 358°
2026-05-04 03:40 11.07135 -74.22961 833 ft 134 kts 358°
2026-05-04 03:40 11.08075 -74.22983 656 ft 134 kts 359°
2026-05-04 03:41 11.09002 -74.23005 477 ft 134 kts 359°
2026-05-04 03:41 11.09929 -74.23028 303 ft 133 kts 358°
2026-05-04 03:41 11.10860 -74.23038 124 ft 133 kts 359°
2026-05-04 03:41 11.11755 -74.23056 29 ft 115 kts 358°
2026-05-04 03:42 11.12249 -74.23068 29 ft 27 kts 358°
2026-05-04 03:42 11.12419 -74.23072 29 ft 23 kts 359°
2026-05-04 03:42 11.12576 -74.23074 29 ft 22 kts 359°
2026-05-04 03:42 11.12706 -74.23099 29 ft 11 kts 29°
2026-05-04 03:43 11.12662 -74.23071 29 ft 11 kts 180°
2026-05-04 03:43 11.12580 -74.23071 29 ft 12 kts 180°
2026-05-04 03:43 11.12494 -74.23071 29 ft 12 kts 179°
2026-05-04 03:43 11.12402 -74.23070 29 ft 13 kts 179°
2026-05-04 03:44 11.12307 -74.23068 29 ft 13 kts 182°
2026-05-04 03:44 11.12211 -74.23083 29 ft 15 kts 192°
2026-05-04 03:44 11.12096 -74.23107 29 ft 17 kts 192°
2026-05-04 03:44 11.11979 -74.23134 29 ft 17 kts 193°
2026-05-04 03:45 11.11879 -74.23154 29 ft 6 kts 188°
2026-05-04 03:45 11.11848 -74.23160 29 ft 1 kts 226°
2026-05-04 03:45 11.11847 -74.23175 29 ft 6 kts 265°
2026-05-04 03:45 11.11846 -74.23210 29 ft 2 kts 270°
2026-05-04 03:46 11.11846 -74.23211 29 ft 0 kts 270°